Lapse_Rate
5.7 6.5 6.5 6.5 6.5 6.5 6.5 6.5 6.5 6.6 6.5 6.5 6.5 6.5 6.5 6.2 6.0 6.3 5.9 6.2 6.4 6.2 4.8 5.3 5.2 5.9 4.3 3.9 3.3 3.6 3.2 2.7 3.0 2.6 2.9 3.2 3.5 3.0 2.9 2.7 3.8 4.1 4.0 4.1
6.5 6.5 6.5 6.5 6.5 6.5 6.5 6.5 6.5 6.5 6.5 6.4 6.5 6.5 6.5 6.4 6.1 5.6 6.2 6.1 6.4 6.1 4.5 4.6 4.6 5.2 4.1 3.7 3.9 3.9 3.7 2.7 3.9 3.9 3.7 2.8 2.8 3.3 2.3 2.6 3.0 3.7 4.1 4.5
6.5 6.5 6.5 6.5 6.5 6.5 6.5 6.5 6.5 6.5 6.5 6.5 6.5 6.5 6.5 6.5 6.1 5.5 5.0 5.2 5.5 6.0 4.3 3.7 4.0 4.0 4.2 3.7 3.5 3.3 3.3 3.1 3.8 3.7 2.6 2.2 2.7 2.0 2.3 2.0 2.3 2.1 3.8 4.2
6.5 6.3 6.5 6.5 6.5 6.5 6.5 6.5 6.5 6.5 6.5 6.5 6.5 6.5 6.5 6.5 6.5 6.5 6.1 4.6 4.7 5.1 5.3 4.0 3.3 3.8 3.8 4.0 3.9 3.4 3.4 3.2 3.8 2.5 2.9 3.0 2.9 2.4 1.4 1.5 1.5 1.9 3.1 3.3
6.5 6.5 6.5 6.5 6.5 6.5 6.5 6.5 6.5 6.5 6.5 6.5 6.5 6.5 6.4 6.5 6.5 6.5 6.3 5.6 4.7 4.5 5.1 4.0 3.4 3.5 3.4 4.4 3.9 3.1 3.2 3.5 4.2 2.8 3.4 3.3 2.5 2.7 1.8 1.2 1.6 1.0 2.2 3.3
6.5 5.8 6.5 6.5 6.5 6.5 6.5 6.5 6.5 6.5 6.5 6.5 6.5 6.5 6.5 6.5 6.5 6.5 6.2 6.1 5.0 4.1 4.9 4.3 3.5 3.8 3.7 4.2 4.0 3.3 2.9 3.2 3.6 3.1 2.8 3.1 2.6 1.9 1.2 0.9 1.1 0.6 1.6 1.7
6.5 6.5 6.5 6.3 6.5 6.5 6.5 6.5 6.5 6.5 6.5 6.5 6.5 6.5 6.5 6.5 6.5 6.5 6.5 5.6 3.7 4.4 4.0 4.0 3.4 3.9 3.6 3.8 3.8 3.4 2.7 2.8 2.9 2.9 3.3 3.0 2.2 1.5 1.6 1.2 0.6 0.9 1.4 1.3
6.5 6.5 6.5 6.5 6.5 6.5 6.5 6.5 6.5 6.5 6.5 6.5 6.5 6.5 6.5 6.5 6.2 5.8 4.9 3.9 3.6 4.8 3.5 4.2 3.1 3.3 3.5 3.7 3.7 3.4 2.5 3.2 3.1 2.9 3.1 2.4 2.2 1.2 1.2 0.7 0.7 0.8 1.6 1.2
6.5 6.5 6.5 6.5 6.5 6.5 6.5 6.5 6.5 6.5 6.5 6.5 6.5 6.5 6.5 6.5 6.5 6.1 5.1 3.9 3.8 5.2 4.6 4.9 3.9 3.1 3.4 3.8 3.5 3.2 2.7 3.4 3.2 3.2 3.0 2.6 1.6 1.3 1.7 0.8 0.7 0.7 0.9 1.2
6.5 6.5 6.5 6.5 6.1 6.4 6.5 6.5 6.5 6.5 6.5 6.5 6.5 6.5 6.5 6.5 6.5 6.5 6.5 5.3 4.0 3.9 5.3 5.4 4.8 3.4 3.5 3.9 3.7 3.4 3.1 3.1 3.1 3.3 2.7 3.4 2.3 1.9 1.2 0.9 0.9 0.7 0.6 0.3
6.5 6.5 6.5 6.5 6.5 6.5 6.5 6.5 6.5 6.5 6.5 6.6 6.5 6.5 6.5 6.5 6.5 6.5 6.5 5.1 3.5 3.9 4.2 5.1 5.4 4.8 3.7 3.7 4.0 3.5 3.0 3.3 2.8 2.9 2.3 2.4 2.1 1.5 0.6 0.9 0.7 0.7 0.3 0.1
6.5 6.5 6.5 6.5 6.5 6.5 6.5 6.5 6.5 6.5 6.5 6.5 6.5 6.5 6.5 6.5 6.5 6.0 5.7 4.4 3.3 3.8 3.5 4.1 5.2 5.5 5.4 3.6 3.5 3.1 3.0 2.6 2.6 2.6 2.1 2.4 1.7 1.2 1.0 0.8 0.4 0.2 0.4 0.5
6.5 6.5 6.5 6.5 6.5 6.5 6.5 6.5 6.5 6.5 6.5 6.5 6.5 6.5 6.5 6.5 6.5 4.1 4.3 3.3 3.8 3.0 2.1 4.7 5.9 5.9 5.4 3.5 3.2 2.9 2.9 2.2 2.0 1.8 2.4 2.0 1.5 1.5 1.5 1.2 0.4 -0.0 0.2 0.3
5.8 6.5 6.5 6.4 6.5 6.5 6.5 6.5 6.5 6.5 6.5 6.5 6.5 6.5 6.5 6.5 6.5 6.3 3.2 1.9 2.5 2.7 2.8 4.0 5.2 5.7 5.2 2.9 2.8 2.3 2.3 2.2 1.4 2.1 2.2 2.0 2.1 1.8 1.8 1.6 1.0 0.1 0.1 0.1
6.5 6.5 6.5 6.6 6.5 6.5 6.5 6.5 6.5 6.5 6.5 6.5 6.5 6.5 6.5 6.5 6.5 5.2 2.0 2.0 3.1 2.4 1.7 3.3 3.9 4.7 4.3 2.9 1.6 2.0 1.6 1.2 0.9 1.7 1.8 2.0 2.4 2.1 1.9 1.6 1.3 0.2 0.2 0.4
6.5 6.5 6.5 6.5 6.5 6.5 6.5 6.5 6.5 6.5 6.5 6.5 6.5 6.5 6.5 4.6 4.5 4.9 3.1 2.0 2.6 0.7 1.1 2.2 2.6 3.9 3.2 2.1 0.4 0.7 0.4 0.8 0.5 1.1 1.5 1.8 1.8 1.4 1.5 1.6 1.0 0.4 0.4 0.7
6.5 6.6 6.5 6.5 6.5 6.5 6.5 6.5 6.5 6.5 6.5 6.5 6.5 6.5 6.5 6.5 6.5 4.9 1.7 2.5 2.4 0.6 0.7 1.6 1.4 2.6 2.2 1.0 0.4 -0.4 -0.4 0.6 0.3 1.1 1.4 1.2 1.8 1.8 1.6 1.6 1.4 1.2 0.8 0.7
6.5 6.5 6.5 6.5 6.5 6.5 6.5 6.5 6.5 6.5 6.5 6.5 6.5 6.5 6.5 5.8 3.8 4.3 1.2 0.1 -0.4 1.3 0.3 0.1 0.7 2.9 1.9 0.9 0.2 -0.2 -0.3 0.0 0.3 1.1 1.1 1.0 1.6 1.9 2.1 1.9 1.6 1.6 1.5 1.4
6.5 6.5 6.5 6.5 6.5 6.5 6.5 6.5 6.5 6.5 6.5 6.5 6.5 6.5 6.3 4.4 3.5 4.6 2.1 0.7 -1.1 -1.0 -1.1 -0.9 -0.2 1.1 0.9 0.7 -0.1 -0.5 -0.5 0.1 0.4 0.8 0.9 0.9 1.5 1.7 2.0 2.0 1.7 2.1 1.4 1.5
6.6 6.5 6.5 6.5 6.5 6.5 6.5 6.5 6.2 6.5 6.5 6.5 6.4 6.5 6.5 5.5 6.5 6.5 2.9 0.8 0.8 0.9 -2.7 -1.7 0.5 1.8 1.1 0.4 0.0 -0.8 -0.6 0.2 0.4 0.8 0.7 0.5 1.3 1.3 1.7 1.6 1.9 1.4 1.4 1.9
6.5 6.5 6.5 6.5 6.5 6.5 6.5 6.4 5.3 6.5 6.5 5.9 5.7 5.7 4.7 6.5 4.6 1.3 1.4 1.4 0.2 -0.6 -0.8 -1.0 0.7 1.8 0.0 0.0 -0.2 -0.3 -0.5 0.3 0.6 0.7 0.9 0.1 0.8 1.2 1.2 1.3 0.7 1.1 1.6 2.0
6.5 6.5 6.5 6.5 6.5 6.5 6.3 6.0 6.5 6.3 4.5 5.5 4.7 4.5 4.1 1.2 0.6 0.9 1.4 1.4 1.6 1.3 0.9 -1.5 -0.0 1.1 0.2 -0.2 0.1 0.0 -0.6 -0.1 1.1 1.3 0.9 -0.1 0.5 1.0 0.9 0.8 0.4 1.0 1.7 2.2
6.5 6.5 6.5 6.5 6.5 6.3 6.1 5.7 6.5 6.3 5.5 5.6 4.0 4.4 2.4 1.8 2.6 2.0 2.0 1.6 1.6 1.7 1.2 0.4 -0.7 -0.3 0.8 -0.3 0.4 0.3 -0.4 0.1 -0.2 0.1 0.3 0.3 0.7 1.0 1.0 1.1 1.1 1.5 1.5 2.5
6.5 6.2 6.5 6.5 6.5 6.5 6.2 5.8 5.2 5.3 5.8 3.5 2.5 4.4 3.4 3.5 2.7 2.7 1.9 1.6 1.4 1.5 1.7 0.4 -0.9 0.1 0.1 0.5 1.0 0.2 -0.3 -1.0 -1.1 -1.0 -0.3 0.4 0.1 0.7 0.8 1.9 2.2 2.4 1.9 2.2
6.0 6.4 6.5 6.5 6.5 6.0 6.2 6.3 5.9 4.7 4.3 2.8 1.3 2.0 3.6 2.8 1.8 2.7 2.0 1.3 1.1 1.3 0.9 0.3 -1.4 -0.7 -0.5 -0.5 -0.2 -1.3 -1.8 -1.8 -0.6 -0.0 -0.3 -0.3 0.7 -0.1 0.8 1.2 0.2 2.9 2.9 2.6
5.9 6.5 6.6 6.5 5.8 6.2 5.9 5.2 5.7 5.9 4.8 3.4 2.0 1.5 2.5 2.9 1.5 2.1 1.9 1.5 1.3 1.2 -0.1 -0.4 -1.2 -1.1 -1.1 -0.8 -1.0 -1.0 -1.0 -0.7 -0.0 0.3 0.2 0.2 0.5 0.2 1.4 -1.1 -2.2 -7.0 -6.0 -4.4
Wind_Speed
2 4 5 9 7 3 5 4 5 3 4 3 4 6 9 13 10 12 11 12 15 16 18 16 15 15 11 9 11 12 10 8 6 3 3 2 3 3 2 6 10 12 12 12
3 6 11 5 4 4 5 6 2 3 4 2 5 9 7 9 5 8 14 13 14 15 8 12 14 15 15 14 12 12 12 9 8 7 3 3 3 1 2 1 6 6 10 11
8 5 7 4 4 5 5 8 5 5 2 2 5 4 4 3 5 8 7 7 8 15 12 13 15 17 15 14 14 13 13 12 10 7 5 3 3 2 1 0 1 4 11 9
7 6 7 3 6 6 5 9 11 10 4 3 2 4 5 1 8 9 12 9 11 11 11 14 17 17 18 17 13 13 12 12 11 7 6 5 5 4 4 3 2 3 3 7
9 5 5 5 8 6 7 12 13 10 4 3 2 3 8 3 7 10 15 14 14 13 14 16 18 19 19 15 14 13 14 12 12 9 9 8 4 2 2 2 5 3 3 7
7 3 6 7 4 9 7 8 8 5 4 5 5 5 8 6 9 3 7 15 17 15 14 16 17 17 15 14 13 13 14 12 11 11 9 10 8 6 4 3 4 3 3 2
6 5 3 4 2 1 7 8 4 3 1 6 7 4 13 10 14 14 3 11 16 15 14 14 17 16 15 16 16 14 14 13 12 12 11 10 8 9 9 7 5 5 4 4
7 7 9 4 9 10 9 10 7 8 5 5 3 7 9 12 21 4 8 10 12 16 18 20 21 19 18 19 18 17 16 14 13 13 12 8 8 6 5 6 5 6 6 4
6 9 2 5 6 10 5 4 5 7 4 4 5 7 12 7 8 6 8 8 11 15 18 20 20 19 19 19 19 19 17 15 14 15 11 9 7 8 7 7 5 4 4 2
7 4 5 6 5 4 8 7 2 1 5 4 3 5 6 9 6 6 9 9 9 10 15 18 19 20 18 18 19 17 16 18 15 13 11 9 9 9 7 6 7 6 5 3
6 5 5 4 6 9 2 3 6 6 5 6 4 6 9 12 8 11 12 12 13 16 17 19 19 20 20 18 16 16 16 16 12 12 10 10 9 8 7 7 7 6 4 4
8 5 6 11 3 2 4 6 7 5 6 2 3 7 6 10 11 12 13 14 13 17 16 18 20 20 17 18 17 17 16 15 14 14 11 10 10 8 7 6 7 5 5 3
2 2 7 12 6 4 2 3 4 5 4 8 7 6 4 8 6 8 10 8 8 12 11 13 17 19 19 17 17 17 16 16 13 12 11 10 11 10 9 8 7 6 5 5
2 1 7 12 12 5 4 6 5 6 4 5 7 7 6 9 10 7 10 10 7 9 13 15 17 19 19 18 17 17 15 15 14 13 12 12 12 12 11 8 7 6 6 7
4 2 3 11 7 6 7 6 8 6 8 7 18 11 13 12 14 11 14 7 5 10 10 15 17 18 18 16 15 15 14 14 14 13 13 13 11 10 9 9 9 7 6 6
4 3 6 5 3 7 5 6 9 8 2 8 6 8 10 10 4 6 11 9 9 9 12 16 17 18 18 17 17 16 15 15 14 13 13 10 9 8 10 9 8 7 7 6
2 3 5 5 6 6 2 5 5 4 6 6 7 15 6 7 9 12 10 10 12 11 12 15 19 20 18 18 17 17 16 15 15 14 12 12 12 11 11 10 9 10 10 7
4 3 2 4 6 4 7 2 3 4 7 8 8 5 10 9 4 4 6 9 10 11 13 14 14 15 17 17 17 16 15 16 16 14 13 12 12 13 11 11 11 10 8 10
5 4 2 2 2 6 2 2 3 1 9 4 6 3 5 6 4 5 1 7 7 9 11 12 15 17 15 17 15 15 14 14 14 14 14 14 14 13 12 13 12 9 8 8
7 8 2 3 1 4 6 1 1 5 6 4 5 9 10 5 4 4 4 5 9 9 7 10 10 11 15 15 16 17 16 15 15 15 16 15 15 14 14 13 13 9 7 9
3 4 1 2 4 7 6 10 3 4 7 5 2 7 9 8 6 7 7 5 5 6 10 9 9 14 15 15 17 17 17 18 20 18 15 13 15 16 15 11 6 8 9 6
4 4 3 1 2 5 14 6 4 7 9 4 6 4 5 4 6 7 7 7 6 6 6 8 11 12 12 15 17 17 19 22 15 13 13 13 14 12 9 12 9 9 9 9
2 1 3 7 5 3 8 5 5 9 6 9 4 3 6 6 3 4 4 5 4 6 2 1 6 7 13 17 18 18 20 14 14 14 14 14 12 11 10 12 11 8 10 9
3 1 2 5 3 15 7 8 12 16 14 16 14 2 7 7 5 4 4 4 3 2 1 1 7 9 12 14 17 18 13 13 14 14 13 11 11 12 10 9 9 9 9 9
5 2 2 4 6 14 7 11 14 17 16 15 11 7 3 7 7 5 4 5 5 4 0 1 5 7 10 12 9 10 13 14 12 11 10 11 10 10 9 6 4 8 9 9
2 2 2 3 7 5 11 13 17 15 14 13 10 13 12 2 10 8 6 4 2 2 3 4 4 7 7 8 11 11 13 14 14 11 9 9 8 7 7 6 4 9 6 2
Wind_Direction
350 88 209 216 214 134 153 112 105 33 298 289 203 202 165 166 168 193 199 220 204 204 210 199 198 194 178 171 169 180 174 181 160 166 162 179 182 198 190 220 208 202 196 189
27 210 233 232 202 153 163 128 119 195 226 202 245 241 146 152 167 181 201 201 230 218 196 193 188 185 182 183 179 189 188 177 186 190 168 151 152 198 186 202 211 226 199 193
203 214 183 191 251 210 194 149 204 200 159 307 324 286 162 179 147 177 198 206 198 227 206 190 183 185 181 184 186 190 191 184 191 182 128 103 91 54 53 266 96 115 230 197
233 218 224 155 245 158 240 176 163 146 168 192 46 282 314 324 243 198 195 207 209 214 207 194 185 184 186 192 184 190 191 187 196 164 158 166 182 171 203 168 169 164 171 157
231 161 153 188 221 162 234 154 169 103 119 334 26 51 272 317 284 232 222 211 214 205 194 191 188 188 191 182 185 187 193 191 194 178 178 190 176 187 145 130 152 186 210 198
233 208 144 216 174 202 101 70 49 59 54 341 178 141 277 233 218 236 189 206 208 200 190 191 189 185 187 182 181 185 189 194 190 182 186 190 181 181 146 170 169 211 239 243
290 253 228 190 167 77 100 86 29 14 6 230 154 137 243 269 248 229 194 201 193 189 180 174 178 188 181 185 187 188 187 190 189 184 190 197 179 180 180 177 169 182 203 215
208 300 176 183 181 187 171 156 156 180 192 235 109 214 249 237 249 213 183 192 204 187 180 180 178 185 182 187 187 186 187 194 187 185 189 191 171 178 185 181 174 198 206 214
163 260 216 168 176 137 215 205 181 95 347 105 215 282 300 268 242 184 183 173 191 185 181 184 179 182 182 187 185 188 188 194 191 191 181 187 173 168 186 191 197 198 215 180
217 283 216 230 142 211 155 170 77 319 135 208 269 267 239 291 251 201 193 200 184 178 181 187 185 184 185 188 188 184 190 192 194 187 183 180 182 179 185 171 209 206 215 163
140 134 272 106 179 214 136 186 54 115 132 166 196 256 218 243 214 203 203 212 193 201 189 185 186 189 186 183 184 188 188 191 189 189 179 166 170 176 173 190 206 207 145 185
204 156 228 215 263 201 164 224 166 175 231 226 171 254 257 236 244 188 213 205 206 202 190 181 183 185 178 184 180 185 187 189 192 189 174 169 160 161 173 197 222 197 166 185
279 240 251 297 345 2 183 206 144 112 81 190 147 255 310 266 247 242 242 219 177 188 168 172 176 183 181 179 181 183 186 191 186 181 173 162 163 172 184 189 212 203 163 174
170 105 186 222 225 175 173 183 155 120 113 168 217 237 281 266 233 227 241 239 191 188 167 171 172 182 185 178 181 180 187 187 182 180 175 175 176 179 183 177 191 201 195 174
82 88 300 291 253 184 212 182 163 161 205 163 244 193 238 227 241 211 222 232 191 158 167 174 169 178 182 180 173 175 182 179 181 178 179 188 180 173 170 174 186 192 198 208
350 316 2 298 184 243 207 186 171 206 167 251 135 241 216 245 199 151 219 218 235 195 182 173 168 173 175 177 175 172 174 179 177 179 185 175 170 160 180 183 178 177 193 202
345 38 17 288 350 283 299 210 198 222 183 165 177 224 172 223 212 220 220 195 213 204 178 171 173 174 177 177 174 175 176 172 175 184 180 176 176 180 185 183 176 187 189 182
196 94 124 266 350 207 234 254 213 242 264 228 264 257 185 218 173 134 176 200 204 187 180 184 171 175 181 174 181 174 167 174 174 181 184 179 182 190 186 183 194 192 178 191
164 130 178 204 236 281 256 81 77 29 288 246 238 188 182 141 84 10 215 174 205 197 187 184 177 180 167 174 173 164 167 176 174 181 183 186 189 191 188 188 194 197 184 188
94 105 151 134 183 268 242 201 110 128 276 278 192 174 158 156 115 234 227 155 173 196 172 174 171 170 170 170 164 160 168 175 184 187 189 186 191 192 193 197 190 180 188 196
18 43 322 259 224 282 294 311 294 126 245 298 174 209 169 170 189 169 158 116 138 169 182 153 156 177 172 164 164 171 171 187 196 190 181 182 189 193 197 186 172 178 183 176
164 138 172 332 227 244 10 342 35 311 301 285 84 355 8 65 99 128 137 135 142 154 156 175 173 172 168 167 170 177 182 200 186 175 178 184 188 192 183 178 173 175 175 182
116 146 206 174 237 308 335 260 320 327 304 332 62 81 111 99 87 126 138 156 169 164 179 166 204 170 172 170 177 182 201 177 177 173 180 183 184 188 186 181 180 175 181 187
313 67 224 5 360 336 298 2 355 354 339 329 350 301 137 147 170 186 167 185 186 222 203 4 158 177 178 183 187 191 170 166 172 176 179 178 179 185 185 193 191 191 188 189
235 6 6 275 311 326 255 352 343 345 337 327 332 327 210 124 154 176 200 190 213 176 259 16 171 186 187 171 169 153 151 153 166 174 177 187 192 185 178 169 214 205 203 196
236 89 48 259 288 232 280 314 328 340 314 321 336 359 354 232 162 160 185 218 193 156 100 86 112 138 144 142 140 147 153 157 159 169 180 183 178 177 179 151 138 51 56 86